| Date | Time | Temp. (oF) | Dew Point (oF) | Rel. Hum. (%) | Press. (in.) | Wind Dir. | Wind Speed (mph) | Hourly Rainfall (in.) |
|
|---|---|---|---|---|---|---|---|---|---|
| 1 | 12/29 | 00:00 | 12 | 2 | 64 | 30.46 | NNW | 2 | 0.00 |
| 2 | 12/28 | 23:00 | 11 | 0 | 63 | 30.47 | NNW | 1 | 0.00 |
| 3 | 12/28 | 22:00 | 12 | 0 | 59 | 30.49 | W | 2 | 0.00 |
| 4 | 12/28 | 21:00 | 12 | 0 | 57 | 30.48 | WNW | 2 | 0.00 |
| 5 | 12/28 | 20:00 | 14 | 0 | 53 | 30.51 | W | 4 | 0.00 |
| 6 | 12/28 | 19:00 | 14 | -1 | 50 | 30.53 | WNW | 3 | 0.00 |
| 7 | 12/28 | 18:00 | 15 | 0 | 49 | 30.53 | WNW | 2 | 0.00 |
| 8 | 12/28 | 17:00 | 17 | -2 | 41 | 30.51 | NNW | 5 | 0.00 |
| 9 | 12/28 | 16:00 | 19 | -2 | 38 | 30.51 | NW | 12 | 0.00 |
| 10 | 12/28 | 15:00 | 19 | -3 | 37 | 30.52 | WNW | 11 | 0.00 |
| 11 | 12/28 | 14:00 | 18 | -4 | 36 | 30.53 | NNW | 9 | 0.00 |
| 12 | 12/28 | 13:00 | 18 | -2 | 39 | 30.56 | WNW | 4 | 0.00 |
| 13 | 12/28 | 12:00 | 16 | -3 | 41 | 30.59 | NNW | 8 | 0.00 |
| 14 | 12/28 | 11:00 | 15 | -2 | 45 | 30.63 | NW | 10 | 0.00 |
| 15 | 12/28 | 10:00 | 13 | 0 | 53 | 30.64 | NW | 8 | 0.00 |
| 16 | 12/28 | 09:00 | 11 | 0 | 62 | 30.64 | WNW | 7 | 0.00 |
| 17 | 12/28 | 08:00 | 9 | 1 | 70 | 30.64 | W | 3 | 0.00 |
| 18 | 12/28 | 07:00 | 9 | 0 | 68 | 30.63 | W | 7 | 0.00 |
| 19 | 12/28 | 06:00 | 10 | 1 | 68 | 30.62 | NW | 4 | 0.00 |
| 20 | 12/28 | 05:00 | 10 | 0 | 64 | 30.59 | WSW | 5 | 0.00 |
| 21 | 12/28 | 04:00 | 10 | 0 | 63 | 30.59 | W | 5 | 0.00 |
| 22 | 12/28 | 03:00 | 11 | 0 | 62 | 30.59 | WNW | 4 | 0.00 |
| 23 | 12/28 | 02:00 | 12 | 1 | 61 | 30.58 | NW | 7 | 0.00 |
| 24 | 12/28 | 01:00 | 12 | 0 | 56 | 30.57 | WNW | 7 | 0.00 |